Location: Capelle
(50.3413°N, 1.9974°E)
Time: 22:56:35
(UTC+00:00)

Spot 4 Rocket - Pass Details

Date: 12 January 2026
Orbit: 768 x 774 km, 98.8° (Epoch: 7 February)

Event Time Altitude Azimuth Distance (km) Brightness Sun altitude
Rises 17:45:55 0° 149° (SSE) 3,241 7.1 -14.2°
Reaches altitude 10° 17:48:14 10° 145° (SE) 2,318 6.3 -14.6°
Maximum altitude 17:53:14 56° 68° (ENE) 920 4.0 -15.3°
Drops below altitude 10° 17:58:15 10° 352° (N) 2,333 6.4 -16.1°
Sets 18:00:36 0° 348° (NNW) 3,264 7.2 -16.5°
